Regional Weather Roundup
Issued by NWS

Home | Current Version | Previous Version | Graphics & Text | Print | Product List | Glossary On
Versions: 1 2 3 4 5 6 7 8 9 10 11 12 13 14 15 16 17 18 19 20 21 22 23 24 25 26 27 28 29 30 31 32 33 34 35 36 37 38 39 40 41 42 43 44 45 46 47 48 49 50
000
ASUS43 KTOP 220559
RWRKS

WEATHER ROUNDUP FOR KANSAS
NATIONAL WEATHER SERVICE GOODLAND KS
1200 AM CST SUN JAN 22 2017

NOTE:  "FAIR" INDICATES FEW OR NO CLOUDS BELOW 12,000 FEET WITH NO
SIGNIFICANT WEATHER AND/OR OBSTRUCTIONS TO VISIBILITY.

KSZ001>006-013>018-027>032-041>047-220700-
NORTHWEST KANSAS

CITY           SKY/WX    TMP DP  RH WIND       PRES   REMARKS
GOODLAND       CLOUDY    30  27  88 NW8       29.62R
6HR MIN TEMP:  29; 6HR MAX TEMP:  36;

HAYS           CLOUDY    43  37  79 N10       29.55R
HILL CITY      CLOUDY    34  32  92 N9        29.60R
6HR MIN TEMP:  34; 6HR MAX TEMP:  44;

RUSSELL        CLOUDY    42  36  79 N8        29.53R
6HR MIN TEMP:  41; 6HR MAX TEMP:  45;

$$

KSZ061>065-074>080-084>089-220700-
SOUTHWEST KANSAS

CITY           SKY/WX    TMP DP  RH WIND       PRES   REMARKS
DODGE CITY     LGT RAIN  41  39  93 N14       29.51R
6HR MIN TEMP:  40; 6HR MAX TEMP:  47; 6HR PCP:  0.04;

ELKHART          N/A    N/A N/A N/A MISG        N/A
GARDEN CITY    LGT RAIN  40  38  93 N14       29.55R WCI  32
6HR MIN TEMP:  40; 6HR MAX TEMP:  47; 6HR PCP:  0.14;

GREAT BEND     CLOUDY    43  39  86 N12       29.52R
LIBERAL        CLOUDY    43  36  75 N17       29.51R
$$

KSZ066>073-081>083-090>101-220700-
SOUTHEAST KANSAS

CITY           SKY/WX    TMP DP  RH WIND       PRES   REMARKS
CHANUTE        LGT RAIN  50  47  89 NE9       29.45S
6HR MIN TEMP:  49; 6HR MAX TEMP:  53; 6HR PCP:  0.07;

COFFEYVILLE    CLOUDY    49  46  90 CALM      29.43R
6HR MIN TEMP:  47; 6HR MAX TEMP:  51; 6HR PCP:  0.02;

HUTCHINSON     CLOUDY    45  43  93 N12       29.46F
6HR MIN TEMP:  45; 6HR MAX TEMP:  47; 6HR PCP:  0.01;

MEDICINE LODGE   N/A     43  41  93 N6        29.45R
NEWTON         CLOUDY    44  43  96 NE12      29.47S
PARSONS        CLOUDY    49  45  86 NE6       29.43F
6HR MIN TEMP:  49; 6HR MAX TEMP:  53; 6HR PCP:  0.03;

WICHITA INTL   CLOUDY    47  42  83 NE13      29.43S
6HR MIN TEMP:  46; 6HR MAX TEMP:  49; 6HR PCP: TRACE;

WICHITA JABRA  CLOUDY    46  43  89 N10       29.44S
6HR MIN TEMP:  45; 6HR MAX TEMP:  46;

WINFIELD       CLOUDY    49  42  77 NE10      29.42S
6HR MIN TEMP:  48; 6HR MAX TEMP:  50; 6HR PCP: TRACE;

$$

KSZ007>012-019>026-033>040-048>060-102>105-220700-
NORTHEAST KANSAS

CITY           SKY/WX    TMP DP  RH WIND       PRES   REMARKS
CONCORDIA      PTCLDY    37  36  96 N7        29.54S
6HR MIN TEMP:  37; 6HR MAX TEMP:  47;

EMPORIA        CLOUDY    45  43  93 NE8       29.48S
6HR MIN TEMP:  45; 6HR MAX TEMP:  47; 6HR PCP:  0.03;

LAWRENCE       CLOUDY    43  43 100 CALM      29.52F
6HR MIN TEMP:  43; 6HR MAX TEMP:  50; 6HR PCP:  0.02;

MANHATTAN      CLOUDY    46  41  82 N5        29.51S
6HR MIN TEMP:  45; 6HR MAX TEMP:  52; 6HR PCP: TRACE;

OLATHE IND     CLOUDY    47  43  86 NE6       29.51F
6HR MIN TEMP:  46; 6HR MAX TEMP:  50; 6HR PCP:  0.01;

OLATHE EXE     CLOUDY    46  44  93 NE5       29.51F
6HR MIN TEMP:  46; 6HR MAX TEMP:  49; 6HR PCP:  0.01;

SALINA           N/A    N/A N/A N/A MISG        N/A
TOPEKA BILLARD CLOUDY    46  43  89 NE3       29.51F
6HR MIN TEMP:  46; 6HR MAX TEMP:  52; 6HR PCP:  0.03;

TOPEKA FORBES  CLOUDY    47  44  90 N6        29.51F
6HR MIN TEMP:  46; 6HR MAX TEMP:  50; 6HR PCP:  0.03;

$$



USA.gov is the U.S. government's official web portal to all federal, state and local government web resources and services.